Time,TemperatureF,DewpointF,PressureIn,WindDirection,WindDirectionDegrees,WindSpeedMPH,WindSpeedGustMPH,Humidity,HourlyPrecipIn,Conditions,Clouds,dailyrainin,SoftwareType,DateUTC
2013-01-19 00:03:00,45.0,36.9,30.31,SE,145,0.0,0.0,73,0.00,CLR,,0.00,WeatherDisplay:10.37,2013-01-19 06:03:00,
2013-01-19 00:08:00,44.8,36.3,30.31,SE,146,0.0,0.0,72,0.00,CLR,,0.00,WeatherDisplay:10.37,2013-01-19 06:08:00,
2013-01-19 00:13:00,44.6,36.1,30.31,SE,145,0.0,0.0,72,0.00,CLR,,0.00,WeatherDisplay:10.37,2013-01-19 06:13:00,
2013-01-19 00:18:00,44.2,35.7,30.31,SE,145,0.0,0.0,72,0.00,CLR,,0.00,WeatherDisplay:10.37,2013-01-19 06:18:00,
2013-01-19 00:23:00,43.9,35.8,30.31,SE,146,0.0,0.0,73,0.00,CLR,,0.00,WeatherDisplay:10.37,2013-01-19 06:23:00,
2013-01-19 00:28:00,43.6,35.9,30.31,SE,146,0.0,0.0,74,0.00,CLR,,0.00,WeatherDisplay:10.37,2013-01-19 06:28:00,
2013-01-19 00:33:00,43.3,35.6,30.31,SE,146,0.0,0.0,74,0.00,CLR,,0.00,WeatherDisplay:10.37,2013-01-19 06:33:00,
2013-01-19 00:38:00,43.1,36.0,30.31,SE,146,0.0,0.0,76,0.00,CLR,,0.00,WeatherDisplay:10.37,2013-01-19 06:38:00,
2013-01-19 00:43:00,42.8,36.1,30.31,SE,146,0.0,0.0,77,0.00,CLR,,0.00,WeatherDisplay:10.37,2013-01-19 06:43:00,
2013-01-19 00:48:00,42.7,36.3,30.31,SE,146,0.0,0.0,78,0.00,CLR,,0.00,WeatherDisplay:10.37,2013-01-19 06:48:00,
2013-01-19 00:53:00,42.6,36.2,30.31,SE,146,0.0,0.0,78,0.00,CLR,,0.00,WeatherDisplay:10.37,2013-01-19 06:53:00,
2013-01-19 00:58:00,42.4,36.3,30.31,SE,146,0.0,0.0,79,0.00,CLR,,0.00,WeatherDisplay:10.37,2013-01-19 06:58:00,
2013-01-19 01:03:00,42.2,36.2,30.31,SE,145,0.0,0.0,79,0.00,CLR,,0.00,WeatherDisplay:10.37,2013-01-19 07:03:00,
2013-01-19 01:08:00,42.0,36.0,30.30,SE,145,0.0,0.0,79,0.00,CLR,,0.00,WeatherDisplay:10.37,2013-01-19 07:08:00,
2013-01-19 01:13:00,41.9,35.9,30.30,SE,146,0.0,0.0,79,0.00,CLR,,0.00,WeatherDisplay:10.37,2013-01-19 07:13:00,
2013-01-19 01:18:00,41.7,35.7,30.30,SE,145,0.0,0.0,79,0.00,CLR,,0.00,WeatherDisplay:10.37,2013-01-19 07:18:00,
2013-01-19 01:23:00,41.5,35.8,30.30,SE,145,0.0,0.0,80,0.00,CLR,,0.00,WeatherDisplay:10.37,2013-01-19 07:23:00,
2013-01-19 01:28:00,41.4,35.7,30.30,SE,145,0.0,0.0,80,0.00,CLR,,0.00,WeatherDisplay:10.37,2013-01-19 07:28:00,
2013-01-19 01:33:00,41.3,35.9,30.30,SE,146,0.0,0.0,81,0.00,CLR,,0.00,WeatherDisplay:10.37,2013-01-19 07:33:00,
2013-01-19 01:38:00,41.2,36.1,30.30,SE,146,0.0,0.0,82,0.00,CLR,,0.00,WeatherDisplay:10.37,2013-01-19 07:38:00,
2013-01-19 01:43:00,41.1,36.0,30.30,SE,146,0.0,0.0,82,0.00,CLR,,0.00,WeatherDisplay:10.37,2013-01-19 07:43:00,
2013-01-19 01:48:00,40.9,35.8,30.30,SE,146,0.0,0.0,82,0.00,CLR,,0.00,WeatherDisplay:10.37,2013-01-19 07:48:00,
2013-01-19 01:53:00,40.8,35.7,30.30,SE,145,0.0,0.0,82,0.00,CLR,,0.00,WeatherDisplay:10.37,2013-01-19 07:53:00,
2013-01-19 01:58:00,40.6,35.5,30.30,SE,146,0.0,0.0,82,0.00,CLR,,0.00,WeatherDisplay:10.37,2013-01-19 07:58:00,
2013-01-19 02:03:00,40.4,35.3,30.30,SE,146,0.0,0.0,82,0.00,CLR,,0.00,WeatherDisplay:10.37,2013-01-19 08:03:00,
2013-01-19 02:08:00,40.3,35.5,30.30,SE,146,0.0,0.0,83,0.00,CLR,,0.00,WeatherDisplay:10.37,2013-01-19 08:08:00,
2013-01-19 02:13:00,40.2,35.4,30.30,SE,145,0.0,0.0,83,0.00,CLR,,0.00,WeatherDisplay:10.37,2013-01-19 08:13:00,
2013-01-19 02:18:00,40.1,35.4,30.30,SE,145,0.0,0.0,83,0.00,CLR,,0.00,WeatherDisplay:10.37,2013-01-19 08:18:00,
2013-01-19 02:23:00,40.0,35.6,30.30,SE,146,0.0,0.0,84,0.00,CLR,,0.00,WeatherDisplay:10.37,2013-01-19 08:23:00,
2013-01-19 02:28:00,39.9,35.5,30.29,SE,146,0.0,0.0,84,0.00,CLR,,0.00,WeatherDisplay:10.37,2013-01-19 08:28:00,
2013-01-19 02:33:00,39.8,35.4,30.29,SE,145,0.0,0.0,84,0.00,CLR,,0.00,WeatherDisplay:10.37,2013-01-19 08:33:00,
2013-01-19 02:38:00,39.7,35.3,30.29,SE,145,0.0,0.0,84,0.00,CLR,,0.00,WeatherDisplay:10.37,2013-01-19 08:38:00,
2013-01-19 02:43:00,39.6,35.2,30.29,SE,146,0.0,0.0,84,0.00,CLR,,0.00,WeatherDisplay:10.37,2013-01-19 08:43:00,
2013-01-19 02:48:00,39.5,35.4,30.29,SE,146,0.0,0.0,85,0.00,CLR,,0.00,WeatherDisplay:10.37,2013-01-19 08:48:00,
2013-01-19 02:53:00,39.4,35.6,30.29,SE,146,0.0,0.0,86,0.00,CLR,,0.00,WeatherDisplay:10.37,2013-01-19 08:53:00,
2013-01-19 02:58:00,39.3,35.5,30.28,SE,145,0.0,0.0,86,0.00,CLR,,0.00,WeatherDisplay:10.37,2013-01-19 08:58:00,
2013-01-19 03:03:00,39.3,35.5,30.28,SE,146,0.0,0.0,86,0.00,CLR,,0.00,WeatherDisplay:10.37,2013-01-19 09:03:00,
2013-01-19 03:08:00,39.3,35.8,30.28,SE,145,0.0,0.0,87,0.00,CLR,,0.00,WeatherDisplay:10.37,2013-01-19 09:08:00,
2013-01-19 03:13:00,39.3,35.8,30.28,SE,145,0.0,0.0,87,0.00,CLR,,0.00,WeatherDisplay:10.37,2013-01-19 09:13:00,
2013-01-19 03:18:00,39.3,35.8,30.28,SE,145,0.0,0.0,87,0.00,CLR,,0.00,WeatherDisplay:10.37,2013-01-19 09:18:00,
2013-01-19 03:23:00,39.2,35.7,30.28,SE,146,0.0,0.0,87,0.00,CLR,,0.00,WeatherDisplay:10.37,2013-01-19 09:23:00,
2013-01-19 03:28:00,39.2,35.7,30.27,SE,146,0.0,0.0,87,0.00,CLR,,0.00,WeatherDisplay:10.37,2013-01-19 09:28:00,
2013-01-19 03:33:00,39.1,35.6,30.27,SE,146,0.0,0.0,87,0.00,CLR,,0.00,WeatherDisplay:10.37,2013-01-19 09:33:00,
2013-01-19 03:38:00,39.0,35.5,30.27,SE,145,0.0,0.0,87,0.00,CLR,,0.00,WeatherDisplay:10.37,2013-01-19 09:38:00,
2013-01-19 03:43:00,38.9,35.4,30.27,SE,146,0.0,0.0,87,0.00,CLR,,0.00,WeatherDisplay:10.37,2013-01-19 09:43:00,
2013-01-19 03:48:00,38.8,35.3,30.27,SE,146,0.0,0.0,87,0.00,CLR,,0.00,WeatherDisplay:10.37,2013-01-19 09:48:00,
2013-01-19 03:53:00,38.7,35.2,30.27,SE,146,0.0,0.0,87,0.00,CLR,,0.00,WeatherDisplay:10.37,2013-01-19 09:53:00,
2013-01-19 03:58:00,38.6,35.1,30.27,SE,146,0.0,0.0,87,0.00,CLR,,0.00,WeatherDisplay:10.37,2013-01-19 09:58:00,
2013-01-19 04:03:00,38.6,35.4,30.27,SE,146,0.0,0.0,88,0.00,CLR,,0.00,WeatherDisplay:10.37,2013-01-19 10:03:00,
2013-01-19 04:08:00,38.6,35.4,30.27,SE,146,0.0,0.0,88,0.00,CLR,,0.00,WeatherDisplay:10.37,2013-01-19 10:08:00,
2013-01-19 04:13:00,38.6,35.4,30.26,SE,145,0.0,0.0,88,0.00,CLR,,0.00,WeatherDisplay:10.37,2013-01-19 10:13:00,
2013-01-19 04:18:00,38.5,35.3,30.26,SE,146,0.0,0.0,88,0.00,CLR,,0.00,WeatherDisplay:10.37,2013-01-19 10:18:00,
2013-01-19 04:23:00,38.4,35.2,30.26,SE,146,0.0,0.0,88,0.00,CLR,,0.00,WeatherDisplay:10.37,2013-01-19 10:23:00,
2013-01-19 04:28:00,38.4,35.2,30.25,SE,146,0.0,0.0,88,0.00,CLR,,0.00,WeatherDisplay:10.37,2013-01-19 10:28:00,
2013-01-19 04:33:00,38.3,35.1,30.25,SE,146,0.0,0.0,88,0.00,CLR,,0.00,WeatherDisplay:10.37,2013-01-19 10:33:00,
2013-01-19 04:38:00,38.2,35.0,30.25,SE,146,0.0,0.0,88,0.00,CLR,,0.00,WeatherDisplay:10.37,2013-01-19 10:38:00,
2013-01-19 04:43:00,38.1,34.9,30.25,SE,145,0.0,0.0,88,0.00,CLR,,0.00,WeatherDisplay:10.37,2013-01-19 10:43:00,
2013-01-19 04:48:00,38.0,34.8,30.24,SE,145,0.0,0.0,88,0.00,CLR,,0.00,WeatherDisplay:10.37,2013-01-19 10:48:00,
2013-01-19 04:53:00,37.9,34.7,30.24,SE,146,0.0,0.0,88,0.00,CLR,,0.00,WeatherDisplay:10.37,2013-01-19 10:53:00,
2013-01-19 04:58:00,37.8,34.6,30.24,SE,146,0.0,0.0,88,0.00,CLR,,0.00,WeatherDisplay:10.37,2013-01-19 10:58:00,
2013-01-19 05:03:00,37.8,34.6,30.24,SE,146,0.0,0.0,88,0.00,CLR,,0.00,WeatherDisplay:10.37,2013-01-19 11:03:00,
2013-01-19 05:08:00,37.8,34.8,30.24,SE,145,0.0,0.0,89,0.00,CLR,,0.00,WeatherDisplay:10.37,2013-01-19 11:08:00,
2013-01-19 05:13:00,37.8,34.8,30.24,SE,146,0.0,0.0,89,0.00,CLR,,0.00,WeatherDisplay:10.37,2013-01-19 11:13:00,